Hourly Data Report for October 02, 2013

All times are specified in Local Standard Time (LST). Add 1 hour to adjust for Daylight Saving Time where and when it is observed.

FREDERICTON
NEW BRUNSWICK

45°52'08.000" N
66°32'14.000" W
20.70 m
8101505
71700
YFC

Download Data

Hourly Data (October 2013)
Hourly Data Report for October 2, 2013
Temp Definition
°C
Dew Point Temp Definition
°C
Rel Hum Definition
%
Wind Dir Definition
10's deg

Wind Spd Definition
km/h
Visibility Definition
km
Stn Press Definition
kPa
Hmdx Definition


Wind Chill Definition


Weather Definition


TIME
00:00 Legend Double Dagger 8.3 8.0 98 22 9 4.0 100.58     LegendNANA
01:00 Legend Double Dagger 8.1 7.8 98 26 5 16.1 100.59     LegendNANA
02:00 Legend Double Dagger 6.9 6.6 98 25 5 14.5 100.56     LegendNANA
03:00 Legend Double Dagger 5.9 5.6 98 22 8 0.8 100.51     LegendNANA
04:00 Legend Double Dagger 5.6 5.5 99   0 1.2 100.52     LegendNANA
05:00 Legend Double Dagger 5.4 5.3 99 24 5 4.8 100.53     LegendNANA
06:00 Legend Double Dagger 6.3 6.2 99 20 8 16.1 100.53     LegendNANA
07:00 Legend Double Dagger 6.6 6.3 98 20 5 16.1 100.51     LegendNANA
08:00 Legend Double Dagger 9.6 9.2 97 20 11 16.1 100.50     LegendNANA
09:00 Legend Double Dagger 13.5 11.6 88 20 9 16.1 100.46     LegendNANA
10:00 Legend Double Dagger 17.7 13.4 76 20 9 16.1 100.41     LegendNANA
11:00 Legend Double Dagger 22.0 13.0 56 24 18 16.1 100.34 25   LegendNANA
12:00 Legend Double Dagger 22.8 12.9 53 24 17 16.1 100.25 26   LegendNANA
13:00 Legend Double Dagger 23.9 13.0 50 24 22 16.1 100.15 27   LegendNANA
14:00 Legend Double Dagger 23.8 13.2 51 27 18 16.1 100.11 27   LegendNANA
15:00 Legend Double Dagger 23.2 13.9 55 23 24 16.1 100.08 27   LegendNANA
16:00 Legend Double Dagger 22.8 14.1 57 25 13 16.1 100.06 26   LegendNANA
17:00 Legend Double Dagger 22.0 13.3 57 25 11 16.1 100.09 25   LegendNANA
18:00 Legend Double Dagger 20.1 9.4 50 25 9 16.1 100.15     LegendNANA
19:00 Legend Double Dagger 17.3 10.0 62 25 8 16.1 100.21     LegendNANA
20:00 Legend Double Dagger 17.5 9.6 59 26 11 16.1 100.29     LegendNANA
21:00 Legend Double Dagger 15.2 9.6 69 24 8 16.1 100.34     LegendNANA
22:00 Legend Double Dagger 15.3 8.8 65 27 8 16.1 100.37     LegendNANA
23:00 Legend Double Dagger 14.6 8.8 68 28 9 16.1 100.46     LegendNANA

Notes on Data Quality.

Legend

  • E = Estimated
  • M = Missing
  • NA = Not Available
  • ‡ = Partner data that is not subject to review by the National Climate Archives
Date modified: